Overview Statistics Trail Chart Weather Telemetry Raw packets
 

This is the latest recevied weather packets stored in our database for station/object DL0BB-10. If no packets are shown the sender has not sent any weather packets the latest 10 day(s).

<< 35 36 37 38 39 >>
Time Temp. Humidity Pressure Rain* Wind** Luminosity Snow
1787876977 26.11° C 41% 1011.6 hPa - - - -
1787876077 26.67° C 41% 1011.9 hPa - - - -
1787875176 27.22° C 39% 1011.6 hPa - - - -
1787874275 26.11° C 42% 1011.6 hPa - - - -
1787873375 26.11° C 41% 1011.6 hPa - - - -
1787872475 26.67° C 41% 1011.9 hPa - - - -
1787871574 27.22° C 40% 1010.8 hPa - - - -
1787870674 26.11° C 42% 1009.9 hPa - - - -
1787869774 26.67° C 41% 1009.4 hPa - - - -
1787868873 27.22° C 40% 1009.4 hPa - - - -
1787867973 27.22° C 40% 1009.6 hPa - - - -
1787867073 26.67° C 41% 1009.7 hPa - - - -
1787866172 26.67° C 41% 1009.6 hPa - - - -
1787865272 27.22° C 40% 1009.4 hPa - - - -
1787864372 27.22° C 41% 1009.4 hPa - - - -
1787863476 26.67° C 41% 1009.5 hPa - - - -
1787862576 26.67° C 41% 1009.4 hPa - - - -
1787861676 27.22° C 40% 1009.4 hPa - - - -
1787860776 27.22° C 41% 1009.4 hPa - - - -
1787859876 26.67° C 41% 1009.2 hPa - - - -
1787858976 27.22° C 40% 1009.6 hPa - - - -
1787858076 27.78° C 39% 1009.5 hPa - - - -
1787857176 27.22° C 41% 1009.8 hPa - - - -
1787856276 27.22° C 41% 1009.9 hPa - - - -
1787855375 27.22° C 40% 1010.1 hPa - - - -

* Rain since midnight (hover to see other rain measurements)
** Current wind speed in m/s (hover to see current wind gust speed)